Аэропорт
Чита (UIAA)

 UIAA / HTA
ЗЦ Новосибирск
Иркутск (UIII)
Иркутск (UIII)
 52.02630, 113.30600  / 2272 ft

 UIAA 150930Z 30004MPS 9999 SCT046CB 22/12 Q1004 R29/CLRD70 NOSIG RMK QFE695/0927
 TAF UIAA 150800Z 1509/1609 24003G08MPS 9999 SCT030CB TEMPO 1509/1512 30005G10MPS -TSRA TEMPO 1520/1524 3100 BR
UIAA (AIP 1605), UIAA (DATA-TEXTS-TABLES), UIAA_j_0220
показать схемы
Название сценария Тип сценария Flight Simulator 9 Flight Simulator X Prepar3D v2 Prepar3D v3 Prepar3D v4 Prepar3D v5 xPlane
Chita P3Dv4.4+ бесплатный
Chita x-aero.ru бесплатный
Chita-2013 FS2004-FSX бесплатный

 

 

Аэропорт Чита (Кадала) - международный аэропорт федераьного значения, расположенный в 13,5 километрах Западнее города Читы и в 2,5 километрах Юго-Западнее озера Кенон. Город Чита - столица Забайкальского края (входит в состав Сибирского Федерального Округа).

 

Характеристика взлетно-посадочной полосы и оборудования

ВПП МПУ Размеры (м.) Превышение (м.) Освещение ДПРМ БПРМ ИЛС
11 109° 2799х56 693 --- 518 (ZM) 553 (Z)
---
29 289° 2799х56 670,8 ОВИ-1 (ICAO CAT. I) 518 (DG) 553 (D) 110.300

 

Средства связи ОВД

Позиция Обозначение Позывной (РУС) Позывной (ENG) Частота
Контроль UIII_CTR Иркутск-Контроль Irkutsk-Control 133.400
Подход UIAA_APP Чита-Подход Chita-Approach 122.000
Вышка UIAA_TWR Чита-Вышка Chita-Tower 118.100

 



2020 © VATRUS division (Privacy Policy)